Time,TemperatureF,DewpointF,PressureIn,WindDirection,WindDirectionDegrees,WindSpeedMPH,WindSpeedGustMPH,Humidity,HourlyPrecipIn,Conditions,Clouds,dailyrainin,SoftwareType,DateUTC
2013-02-24 00:01:00,48.0,-99.9,29.86,WSW,252,9.0,12.0,-999,-99.99,,,-99.99,,2013-02-24 05:01:00,
2013-02-24 00:11:00,48.0,-99.9,29.85,WSW,239,9.0,11.0,-999,-99.99,,,-99.99,,2013-02-24 05:11:00,
2013-02-24 00:22:00,48.0,-99.9,29.85,SW,229,9.0,11.0,-999,-99.99,,,-99.99,,2013-02-24 05:22:00,
2013-02-24 00:32:00,48.0,-99.9,29.85,SW,231,9.0,10.0,-999,-99.99,,,-99.99,,2013-02-24 05:32:00,
2013-02-24 00:42:00,48.0,-99.9,29.85,SSW,213,8.0,10.0,-999,-99.99,,,-99.99,,2013-02-24 05:42:00,
2013-02-24 00:52:00,48.0,-99.9,29.80,South,173,10.0,11.0,-999,-99.99,,,-99.99,,2013-02-24 05:52:00,
2013-02-24 01:02:00,48.0,-99.9,29.76,SSE,150,16.0,18.0,-999,-99.99,,,-99.99,,2013-02-24 06:02:00,
2013-02-24 01:12:00,49.0,-99.9,29.76,SSE,165,9.0,14.0,-999,-99.99,,,-99.99,,2013-02-24 06:12:00,
2013-02-24 01:22:00,49.0,-99.9,29.78,SSW,213,6.0,8.0,-999,-99.99,,,-99.99,,2013-02-24 06:22:00,
2013-02-24 01:32:00,49.0,-99.9,29.81,West,273,8.0,10.0,-999,-99.99,,,-99.99,,2013-02-24 06:32:00,
2013-02-24 01:42:00,49.0,-99.9,29.75,SSE,166,3.0,4.0,-999,-99.99,,,-99.99,,2013-02-24 06:42:00,
2013-02-24 01:52:00,49.0,-99.9,29.78,NW,322,9.0,12.0,-999,-99.99,,,-99.99,,2013-02-24 06:52:00,
2013-02-24 02:01:00,48.0,-99.9,29.76,NNW,345,7.0,10.0,-999,-99.99,,,-99.99,,2013-02-24 07:01:00,
2013-02-24 02:12:00,48.0,-99.9,29.76,NNW,348,6.0,8.0,-999,-99.99,,,-99.99,,2013-02-24 07:12:00,
2013-02-24 02:22:00,48.0,-99.9,29.76,NNW,332,5.0,7.0,-999,-99.99,,,-99.99,,2013-02-24 07:22:00,
2013-02-24 02:32:00,48.0,-99.9,29.77,NNW,330,7.0,12.0,-999,-99.99,,,-99.99,,2013-02-24 07:32:00,
2013-02-24 02:42:00,48.0,-99.9,29.78,NW,323,9.0,12.0,-999,-99.99,,,-99.99,,2013-02-24 07:42:00,
2013-02-24 02:52:00,48.0,-99.9,29.78,NW,326,14.0,18.0,-999,-99.99,,,-99.99,,2013-02-24 07:52:00,
2013-02-24 03:01:00,47.0,-99.9,29.78,NW,325,13.0,18.0,-999,-99.99,,,-99.99,,2013-02-24 08:01:00,
2013-02-24 03:11:00,47.0,-99.9,29.77,NNW,329,10.0,14.0,-999,-99.99,,,-99.99,,2013-02-24 08:11:00,
2013-02-24 03:22:00,47.0,-99.9,29.77,NNW,328,7.0,10.0,-999,-99.99,,,-99.99,,2013-02-24 08:22:00,
2013-02-24 03:32:00,47.0,-99.9,29.77,NW,311,7.0,9.0,-999,-99.99,,,-99.99,,2013-02-24 08:32:00,
2013-02-24 03:42:00,47.0,-99.9,29.77,WNW,293,5.0,7.0,-999,-99.99,,,-99.99,,2013-02-24 08:42:00,
2013-02-24 03:54:00,47.0,-99.9,29.77,WNW,297,6.0,9.0,-999,-99.99,,,-99.99,,2013-02-24 08:54:00,
2013-02-24 04:02:00,47.0,-99.9,29.77,WNW,286,4.0,7.0,-999,-99.99,,,-99.99,,2013-02-24 09:02:00,
2013-02-24 04:11:00,47.0,-99.9,29.77,West,278,5.0,7.0,-999,-99.99,,,-99.99,,2013-02-24 09:11:00,
2013-02-24 04:22:00,47.0,-99.9,29.78,WNW,286,7.0,9.0,-999,-99.99,,,-99.99,,2013-02-24 09:22:00,
2013-02-24 04:32:00,47.0,-99.9,29.78,WNW,297,6.0,7.0,-999,-99.99,,,-99.99,,2013-02-24 09:32:00,
2013-02-24 04:42:00,47.0,-99.9,29.78,West,281,4.0,6.0,-999,-99.99,,,-99.99,,2013-02-24 09:42:00,
2013-02-24 04:52:00,47.0,-99.9,29.78,West,276,4.0,7.0,-999,-99.99,,,-99.99,,2013-02-24 09:52:00,
2013-02-24 05:01:00,48.0,-99.9,29.78,WNW,286,6.0,9.0,-999,-99.99,,,-99.99,,2013-02-24 10:01:00,
2013-02-24 05:11:00,48.0,-99.9,29.79,WNW,300,7.0,10.0,-999,-99.99,,,-99.99,,2013-02-24 10:11:00,
2013-02-24 05:22:00,48.0,-99.9,29.78,WNW,297,8.0,10.0,-999,-99.99,,,-99.99,,2013-02-24 10:22:00,
2013-02-24 05:32:00,48.0,-99.9,29.79,WNW,286,8.0,10.0,-999,-99.99,,,-99.99,,2013-02-24 10:32:00,
2013-02-24 05:42:00,48.0,-99.9,29.79,WNW,297,6.0,10.0,-999,-99.99,,,-99.99,,2013-02-24 10:42:00,
2013-02-24 05:52:00,48.0,-99.9,29.80,WNW,294,9.0,14.0,-999,-99.99,,,-99.99,,2013-02-24 10:52:00,
2013-02-24 06:01:00,48.0,-99.9,29.81,WNW,295,10.0,15.0,-999,-99.99,,,-99.99,,2013-02-24 11:01:00,
2013-02-24 06:11:00,48.0,-99.9,29.80,WNW,303,9.0,13.0,-999,-99.99,,,-99.99,,2013-02-24 11:11:00,
2013-02-24 06:22:00,48.0,-99.9,29.81,NW,309,11.0,17.0,-999,-99.99,,,-99.99,,2013-02-24 11:22:00,
2013-02-24 06:32:00,48.0,-99.9,29.81,NW,311,13.0,23.0,-999,-99.99,,,-99.99,,2013-02-24 11:32:00,
2013-02-24 06:42:00,47.0,-99.9,29.81,NW,320,8.0,11.0,-999,-99.99,,,-99.99,,2013-02-24 11:42:00,
2013-02-24 06:53:00,47.0,-99.9,29.81,NW,321,9.0,13.0,-999,-99.99,,,-99.99,,2013-02-24 11:53:00,
2013-02-24 07:02:00,47.0,-99.9,29.82,NW,317,10.0,14.0,-999,-99.99,,,-99.99,,2013-02-24 12:02:00,
2013-02-24 07:11:00,47.0,-99.9,29.82,NW,314,9.0,13.0,-999,-99.99,,,-99.99,,2013-02-24 12:11:00,
2013-02-24 07:22:00,47.0,-99.9,29.83,NW,317,7.0,10.0,-999,-99.99,,,-99.99,,2013-02-24 12:22:00,
2013-02-24 07:33:00,47.0,-99.9,29.84,NW,308,8.0,13.0,-999,-99.99,,,-99.99,,2013-02-24 12:33:00,
2013-02-24 07:46:00,47.0,-99.9,29.85,NW,310,10.0,13.0,-999,-99.99,,,-99.99,,2013-02-24 12:46:00,
2013-02-24 08:00:00,47.0,-99.9,29.85,NW,316,11.0,15.0,-999,-99.99,,,-99.99,,2013-02-24 13:00:00,
2013-02-24 08:16:00,47.0,-99.9,29.85,NW,311,9.0,13.0,-999,-99.99,,,-99.99,,2013-02-24 13:16:00,
2013-02-24 08:27:00,47.0,-99.9,29.86,NW,304,12.0,17.0,-999,-99.99,,,-99.99,,2013-02-24 13:27:00,
2013-02-24 08:35:00,47.0,-99.9,29.87,NW,308,9.0,12.0,-999,-99.99,,,-99.99,,2013-02-24 13:35:00,
2013-02-24 08:46:00,47.0,-99.9,29.88,NW,309,9.0,12.0,-999,-99.99,,,-99.99,,2013-02-24 13:46:00,
2013-02-24 08:56:00,48.0,-99.9,29.88,NW,315,12.0,16.0,-999,-99.99,,,-99.99,,2013-02-24 13:56:00,
2013-02-24 09:05:00,48.0,-99.9,29.89,NW,318,12.0,17.0,-999,-99.99,,,-99.99,,2013-02-24 14:05:00,
2013-02-24 09:25:00,48.0,-99.9,29.90,NW,317,14.0,17.0,-999,-99.99,,,-99.99,,2013-02-24 14:25:00,
2013-02-24 09:35:00,48.0,-99.9,29.90,NW,312,10.0,14.0,-999,-99.99,,,-99.99,,2013-02-24 14:35:00,
2013-02-24 09:46:00,48.0,-99.9,29.90,NW,305,11.0,13.0,-999,-99.99,,,-99.99,,2013-02-24 14:46:00,
2013-02-24 09:55:00,48.0,-99.9,29.90,NW,306,10.0,15.0,-999,-99.99,,,-99.99,,2013-02-24 14:55:00,
2013-02-24 10:04:00,48.0,-99.9,29.90,NW,305,10.0,13.0,-999,-99.99,,,-99.99,,2013-02-24 15:04:00,
2013-02-24 10:15:00,49.0,-99.9,29.90,NW,308,12.0,18.0,-999,-99.99,,,-99.99,,2013-02-24 15:15:00,
2013-02-24 10:24:00,49.0,-99.9,29.91,NW,311,13.0,19.0,-999,-99.99,,,-99.99,,2013-02-24 15:24:00,
2013-02-24 10:32:00,49.0,-99.9,29.91,NW,321,13.0,18.0,-999,-99.99,,,-99.99,,2013-02-24 15:32:00,
2013-02-24 10:42:00,49.0,-99.9,29.91,NW,316,12.0,15.0,-999,-99.99,,,-99.99,,2013-02-24 15:42:00,
2013-02-24 10:53:00,50.0,-99.9,29.91,NW,323,12.0,16.0,-999,-99.99,,,-99.99,,2013-02-24 15:53:00,
2013-02-24 11:02:00,50.0,-99.9,29.91,NW,316,16.0,21.0,-999,-99.99,,,-99.99,,2013-02-24 16:02:00,
2013-02-24 11:12:00,50.0,-99.9,29.91,NW,314,17.0,21.0,-999,-99.99,,,-99.99,,2013-02-24 16:12:00,
2013-02-24 11:22:00,51.0,-99.9,29.91,NW,324,12.0,17.0,-999,-99.99,,,-99.99,,2013-02-24 16:22:00,
2013-02-24 11:32:00,51.0,-99.9,29.92,NW,321,13.0,18.0,-999,-99.99,,,-99.99,,2013-02-24 16:32:00,
2013-02-24 11:42:00,52.0,-99.9,29.92,NW,314,12.0,19.0,-999,-99.99,,,-99.99,,2013-02-24 16:42:00,
2013-02-24 11:52:00,53.0,-99.9,29.92,NW,315,9.0,12.0,-999,-99.99,,,-99.99,,2013-02-24 16:52:00,
2013-02-24 12:01:00,53.0,-99.9,29.92,NW,313,11.0,16.0,-999,-99.99,,,-99.99,,2013-02-24 17:01:00,
2013-02-24 12:11:00,54.0,-99.9,29.91,NW,308,12.0,17.0,-999,-99.99,,,-99.99,,2013-02-24 17:11:00,
2013-02-24 12:22:00,55.0,-99.9,29.91,NNW,331,16.0,20.0,-999,-99.99,,,-99.99,,2013-02-24 17:22:00,
2013-02-24 12:32:00,55.0,-99.9,29.90,WNW,303,11.0,15.0,-999,-99.99,,,-99.99,,2013-02-24 17:32:00,
2013-02-24 12:42:00,56.0,-99.9,29.90,NW,308,12.0,17.0,-999,-99.99,,,-99.99,,2013-02-24 17:42:00,
2013-02-24 12:53:00,56.0,-99.9,29.90,NW,307,11.0,14.0,-999,-99.99,,,-99.99,,2013-02-24 17:53:00,
2013-02-24 13:02:00,58.0,-99.9,29.90,WNW,297,9.0,13.0,-999,-99.99,,,-99.99,,2013-02-24 18:02:00,
2013-02-24 13:12:00,58.0,-99.9,29.89,NW,305,10.0,14.0,-999,-99.99,,,-99.99,,2013-02-24 18:12:00,
2013-02-24 13:22:00,58.0,-99.9,29.89,NW,311,10.0,13.0,-999,-99.99,,,-99.99,,2013-02-24 18:22:00,
2013-02-24 13:32:00,59.0,-99.9,29.89,NNW,330,9.0,13.0,-999,-99.99,,,-99.99,,2013-02-24 18:32:00,
2013-02-24 13:42:00,59.0,-99.9,29.89,North,352,10.0,13.0,-999,-99.99,,,-99.99,,2013-02-24 18:42:00,
2013-02-24 13:52:00,60.0,-99.9,29.89,NNW,329,11.0,17.0,-999,-99.99,,,-99.99,,2013-02-24 18:52:00,
2013-02-24 14:01:00,60.0,-99.9,29.88,NNW,342,11.0,13.0,-999,-99.99,,,-99.99,,2013-02-24 19:01:00,
2013-02-24 14:12:00,60.0,-99.9,29.88,NW,307,7.0,11.0,-999,-99.99,,,-99.99,,2013-02-24 19:12:00,
2013-02-24 14:22:00,60.0,-99.9,29.88,NW,318,10.0,14.0,-999,-99.99,,,-99.99,,2013-02-24 19:22:00,
2013-02-24 14:32:00,61.0,-99.9,29.88,NW,311,10.0,16.0,-999,-99.99,,,-99.99,,2013-02-24 19:32:00,
2013-02-24 14:42:00,61.0,-99.9,29.87,NW,317,8.0,12.0,-999,-99.99,,,-99.99,,2013-02-24 19:42:00,
2013-02-24 14:52:00,62.0,-99.9,29.88,WNW,283,3.0,7.0,-999,-99.99,,,-99.99,,2013-02-24 19:52:00,
2013-02-24 15:02:00,62.0,-99.9,29.88,WNW,284,3.0,6.0,-999,-99.99,,,-99.99,,2013-02-24 20:02:00,
2013-02-24 15:11:00,62.0,-99.9,29.88,West,261,5.0,9.0,-999,-99.99,,,-99.99,,2013-02-24 20:11:00,
2013-02-24 15:22:00,62.0,-99.9,29.88,WNW,291,9.0,12.0,-999,-99.99,,,-99.99,,2013-02-24 20:22:00,
2013-02-24 15:32:00,63.0,-99.9,29.87,WNW,298,7.0,11.0,-999,-99.99,,,-99.99,,2013-02-24 20:32:00,
2013-02-24 15:42:00,63.0,-99.9,29.87,West,268,3.0,6.0,-999,-99.99,,,-99.99,,2013-02-24 20:42:00,
2013-02-24 15:52:00,63.0,-99.9,29.88,WNW,300,8.0,12.0,-999,-99.99,,,-99.99,,2013-02-24 20:52:00,
2013-02-24 16:02:00,63.0,-99.9,29.88,WNW,283,8.0,11.0,-999,-99.99,,,-99.99,,2013-02-24 21:02:00,
2013-02-24 16:11:00,56.0,-99.9,29.88,South,181,13.0,16.0,-999,-99.99,,,-99.99,,2013-02-24 21:11:00,
2013-02-24 16:21:00,55.0,-99.9,29.88,SSW,197,11.0,15.0,-999,-99.99,,,-99.99,,2013-02-24 21:21:00,
2013-02-24 16:32:00,55.0,-99.9,29.88,South,190,14.0,16.0,-999,-99.99,,,-99.99,,2013-02-24 21:32:00,
2013-02-24 16:42:00,55.0,-99.9,29.88,SSW,194,12.0,14.0,-999,-99.99,,,-99.99,,2013-02-24 21:42:00,
2013-02-24 16:52:00,55.0,-99.9,29.88,SSW,201,11.0,14.0,-999,-99.99,,,-99.99,,2013-02-24 21:52:00,
2013-02-24 17:01:00,54.0,-99.9,29.88,SSW,192,14.0,15.0,-999,-99.99,,,-99.99,,2013-02-24 22:01:00,
2013-02-24 17:11:00,54.0,-99.9,29.88,SSW,195,14.0,15.0,-999,-99.99,,,-99.99,,2013-02-24 22:11:00,
2013-02-24 17:22:00,54.0,-99.9,29.88,SSW,198,13.0,15.0,-999,-99.99,,,-99.99,,2013-02-24 22:22:00,
2013-02-24 17:32:00,54.0,-99.9,29.89,SSW,194,12.0,13.0,-999,-99.99,,,-99.99,,2013-02-24 22:32:00,
2013-02-24 17:42:00,54.0,-99.9,29.89,SSW,194,11.0,13.0,-999,-99.99,,,-99.99,,2013-02-24 22:42:00,
2013-02-24 17:52:00,54.0,-99.9,29.89,SSW,195,12.0,13.0,-999,-99.99,,,-99.99,,2013-02-24 22:52:00,
2013-02-24 18:02:00,54.0,-99.9,29.89,SSW,200,9.0,10.0,-999,-99.99,,,-99.99,,2013-02-24 23:02:00,
2013-02-24 18:11:00,54.0,-99.9,29.90,SSW,203,9.0,10.0,-999,-99.99,,,-99.99,,2013-02-24 23:11:00,
2013-02-24 18:22:00,53.0,-99.9,29.90,SSW,205,9.0,9.0,-999,-99.99,,,-99.99,,2013-02-24 23:22:00,
2013-02-24 18:32:00,53.0,-99.9,29.90,SSW,210,11.0,12.0,-999,-99.99,,,-99.99,,2013-02-24 23:32:00,
2013-02-24 18:42:00,53.0,-99.9,29.91,SSW,207,10.0,11.0,-999,-99.99,,,-99.99,,2013-02-24 23:42:00,
2013-02-24 18:52:00,53.0,-99.9,29.91,SSW,213,9.0,10.0,-999,-99.99,,,-99.99,,2013-02-24 23:52:00,
2013-02-24 19:02:00,53.0,-99.9,29.92,SW,218,9.0,10.0,-999,-99.99,,,-99.99,,2013-02-25 00:02:00,
2013-02-24 19:11:00,53.0,-99.9,29.93,SW,217,10.0,10.0,-999,-99.99,,,-99.99,,2013-02-25 00:11:00,
2013-02-24 19:22:00,53.0,-99.9,29.93,SW,220,9.0,10.0,-999,-99.99,,,-99.99,,2013-02-25 00:22:00,
2013-02-24 19:32:00,53.0,-99.9,29.93,SW,220,9.0,9.0,-999,-99.99,,,-99.99,,2013-02-25 00:32:00,
2013-02-24 19:42:00,53.0,-99.9,29.93,SW,233,5.0,6.0,-999,-99.99,,,-99.99,,2013-02-25 00:42:00,
2013-02-24 19:52:00,53.0,-99.9,29.94,SW,229,6.0,6.0,-999,-99.99,,,-99.99,,2013-02-25 00:52:00,
2013-02-24 20:02:00,53.0,-99.9,29.94,SW,224,5.0,6.0,-999,-99.99,,,-99.99,,2013-02-25 01:02:00,
2013-02-24 20:11:00,53.0,-99.9,29.95,WSW,242,5.0,6.0,-999,-99.99,,,-99.99,,2013-02-25 01:11:00,
2013-02-24 20:22:00,54.0,-99.9,29.95,WSW,247,5.0,6.0,-999,-99.99,,,-99.99,,2013-02-25 01:22:00,
2013-02-24 20:32:00,53.0,-99.9,29.96,SW,236,9.0,10.0,-999,-99.99,,,-99.99,,2013-02-25 01:32:00,
2013-02-24 20:42:00,54.0,-99.9,29.96,WSW,242,7.0,8.0,-999,-99.99,,,-99.99,,2013-02-25 01:42:00,
2013-02-24 20:52:00,54.0,-99.9,29.96,WSW,247,5.0,7.0,-999,-99.99,,,-99.99,,2013-02-25 01:52:00,
2013-02-24 21:01:00,53.0,-99.9,29.95,WSW,242,5.0,6.0,-999,-99.99,,,-99.99,,2013-02-25 02:01:00,
2013-02-24 21:11:00,53.0,-99.9,29.95,West,260,4.0,4.0,-999,-99.99,,,-99.99,,2013-02-25 02:11:00,
2013-02-24 21:22:00,52.0,-99.9,29.95,West,261,4.0,5.0,-999,-99.99,,,-99.99,,2013-02-25 02:22:00,
2013-02-24 21:32:00,52.0,-99.9,29.96,West,267,3.0,4.0,-999,-99.99,,,-99.99,,2013-02-25 02:32:00,
2013-02-24 21:42:00,52.0,-99.9,29.96,West,263,5.0,6.0,-999,-99.99,,,-99.99,,2013-02-25 02:42:00,
2013-02-24 21:52:00,52.0,-99.9,29.96,WSW,255,5.0,6.0,-999,-99.99,,,-99.99,,2013-02-25 02:52:00,
2013-02-24 22:02:00,52.0,-99.9,29.97,WSW,253,6.0,7.0,-999,-99.99,,,-99.99,,2013-02-25 03:02:00,
2013-02-24 22:11:00,52.0,-99.9,29.97,WSW,254,6.0,7.0,-999,-99.99,,,-99.99,,2013-02-25 03:11:00,
2013-02-24 22:21:00,52.0,-99.9,29.97,WSW,253,6.0,7.0,-999,-99.99,,,-99.99,,2013-02-25 03:21:00,
2013-02-24 22:32:00,51.0,-99.9,29.97,WSW,253,6.0,8.0,-999,-99.99,,,-99.99,,2013-02-25 03:32:00,
2013-02-24 22:42:00,51.0,-99.9,29.98,WSW,258,7.0,9.0,-999,-99.99,,,-99.99,,2013-02-25 03:42:00,
2013-02-24 22:52:00,51.0,-99.9,29.98,West,260,7.0,9.0,-999,-99.99,,,-99.99,,2013-02-25 03:52:00,
2013-02-24 23:02:00,51.0,-99.9,29.98,WSW,255,7.0,9.0,-999,-99.99,,,-99.99,,2013-02-25 04:02:00,
2013-02-24 23:11:00,51.0,-99.9,29.98,West,262,7.0,10.0,-999,-99.99,,,-99.99,,2013-02-25 04:11:00,
2013-02-24 23:22:00,51.0,-99.9,29.98,WNW,291,4.0,6.0,-999,-99.99,,,-99.99,,2013-02-25 04:22:00,
2013-02-24 23:32:00,50.0,-99.9,29.98,NW,304,4.0,5.0,-999,-99.99,,,-99.99,,2013-02-25 04:32:00,
2013-02-24 23:42:00,50.0,-99.9,29.98,West,281,5.0,7.0,-999,-99.99,,,-99.99,,2013-02-25 04:42:00,
2013-02-24 23:52:00,50.0,-99.9,29.98,West,276,4.0,5.0,-999,-99.99,,,-99.99,,2013-02-25 04:52:00,